{"data":{"norad_id":53784,"intl_designator":"2022-111M","name":"STARLINK-4687","alt_names":[],"object_type":"PAYLOAD","status":"ACTIVE","operator":null,"country":"US","launch_date":"2022-09-11","launch_site_code":"AFETR","launch_vehicle":null,"mission":null,"orbit_class":"UNKNOWN","rcs_meters":null,"size_class":null,"mass_kg":null,"dimensions":null,"purposes":["comms"],"wikipedia_slug":null,"has_3d_model":false,"image_url":null,"decayed_at":null,"tle_current":{"epoch":"2026-09-20T04:11:33.443232Z","epoch_age_seconds":112210,"freshness":"FRESH","line1":"1 53784U 22111M   26263.17469263 -.00000347  00000+0  58444-6 0  9996","line2":"2 53784  53.1589 107.2932 0001215  83.1104 277.0036 15.31704857223249","mean_motion":15.31704857,"eccentricity":0.0001215,"inclination_deg":53.1589,"raan_deg":107.2932,"arg_perigee_deg":83.1104,"mean_anomaly_deg":277.0036,"bstar":5.8444e-7,"rev_number":22324,"period_min":94.012889847486,"perigee_km":469.89338000385,"apogee_km":471.55765359544,"semimajor_km":6848.8625167996,"source":"CELESTRAK","updated_at":"2026-09-21T09:00:32.993223Z"}}}